Voltar ao catálogo

ONEWEB-0067

AtivoComunicaçõesPO
NORAD 45425·PAYLOAD·🇬🇧 United Kingdom

Lançado Mar 21, 2020 de Baikonur Cosmodrome

Loading…

Próximas Passagens (próximas 24 horas)

TLE

AtualizadoSource: CelesTrak SupGP

Época: Sep 14, 2026, 13:03 UTC

1 45425C 20020B   26257.54428655 -.00000084  00000+0 -23635-3 0  2577
2 45425  87.8987   3.2434 0001943 105.4364 333.9705 13.11422877    12

Acompanhe ONEWEB-0067 em tempo real com AllMySat

Download on the App Store